This is the latest recevied weather packets stored in our database for station/object IK2ILW-4. If no packets are shown the sender has not sent any weather packets the latest 10 day(s).
| Time | Temp. | Humidity | Pressure | Rain* | Wind** | Luminosity | Snow |
|---|---|---|---|---|---|---|---|
| 1787750268 | 21.11° C | 78% | 1022.8 hPa | 0.51 mm | - | 563 W/m² | - |
| 1787749954 | 21.11° C | 79% | 1022.7 hPa | 0.51 mm | - | 339 W/m² | - |
| 1787749664 | 21.67° C | 77% | 1022.7 hPa | 0.51 mm | - | 469 W/m² | - |
| 1787749355 | 21.67° C | 76% | 1022.7 hPa | 0.51 mm | - | 341 W/m² | - |
| 1787749068 | 21.67° C | 75% | 1022.7 hPa | 0.51 mm | - | 341 W/m² | - |
| 1787748766 | 21.67° C | 75% | 1022.7 hPa | 0.51 mm | - | 891 W/m² | - |
| 1787748455 | 22.22° C | 75% | 1022.7 hPa | 0.51 mm | - | 798 W/m² | - |
| 1787748166 | 22.22° C | 69% | 1022.8 hPa | 0.51 mm | - | 294 W/m² | - |
| 1787747856 | 22.22° C | 71% | 1022.8 hPa | 0.51 mm | - | 297 W/m² | - |
| 1787747564 | 21.67° C | 72% | 1022.8 hPa | 0.51 mm | - | 343 W/m² | - |
| 1787747261 | 22.22° C | 71% | 1022.8 hPa | 0.51 mm | - | 200 W/m² | - |
| 1787746957 | 22.22° C | 69% | 1022.8 hPa | 0.51 mm | - | 239 W/m² | - |
| 1787746665 | 22.78° C | 70% | 1022.8 hPa | 0.51 mm | - | 234 W/m² | - |
| 1787746361 | 22.78° C | 68% | 1023 hPa | 0.51 mm | - | 174 W/m² | - |
| 1787746052 | 22.78° C | 68% | 1023 hPa | 0.51 mm | - | 809 W/m² | - |
| 1787745753 | 22.78° C | 70% | 1023 hPa | 0.51 mm | - | 809 W/m² | - |
| 1787745469 | 22.22° C | 70% | 1023 hPa | 0.51 mm | - | 856 W/m² | - |
| 1787745168 | 22.22° C | 69% | 1023 hPa | 0.51 mm | - | 272 W/m² | - |
| 1787744855 | 22.22° C | 66% | 1023 hPa | 0.51 mm | - | 814 W/m² | - |
| 1787744572 | 22.22° C | 68% | 1023 hPa | 0.51 mm | - | 645 W/m² | - |
| 1787744267 | 22.22° C | 68% | 1023 hPa | 0.51 mm | - | 587 W/m² | - |
| 1787743955 | 21.67° C | 66% | 1023 hPa | 0.51 mm | - | 858 W/m² | - |
| 1787743670 | 21.67° C | 68% | 1022.7 hPa | 0.51 mm | - | 824 W/m² | - |
| 1787743365 | 21.67° C | 67% | 1022.7 hPa | 0.51 mm | - | 814 W/m² | - |
| 1787743055 | 21.67° C | 70% | 1022.7 hPa | 0.51 mm | - | 846 W/m² | - |
* Rain since midnight (hover to see other rain measurements)
** Current wind speed in m/s (hover to see current wind gust speed)